MONTHLY SUBSCRIPTION ARCHIVE

August – 2022
DATA MATCH TIP ODDS FT
01.08.2022 Sochaux – Paris FC X 2.90 0:0
02.08.2022 Valencia B (Esp) – Eldense (Esp) 2 2.50 0:1
03.08.2022 Sanfrecce Hiroshima – Yokohama F. Marinos 1 2.20 3:1
04.08.2022 Mjondalen – Raufoss 2 2.80 1:2
05.08.2022 Lara – La Guaira 1 2.50 2:0
06.08.2022 PLEASE CONTACT US / / /:/
07.08.2022 PLEASE CONTACT US / / /:/

 

July – 2022
DATA MATCH TIP ODDS FT
01.07.2022 KR Reykjavik – Vikingur Reykjavik 2 2.60 0:3
02.07.2022 Dep. Merlo – Canuelas 1 2.70 2:1
03.07.2022 Santamarina – Tristan Suarez X 2.70 0:0
04.07.2022 Wuhan FC – Guangzhou FC 1 2.40 2:1
05.07.2022 Mettersdorf (Aut) – Deutschlandsberger (Aut) 1 2.80 4:1
06.07.2022 Huracan Las Heras – Sol de Mayo 1 2.90 2:0
07.07.2022 El Ismaily – Enppi X 2.80 1:1
08.07.2022 Mount Druitt Rangers – Wollongong Wolves 1 2.60 4:3
09.07.2022 Vancouver Whitecaps – Minnesota United 2 2.70 1:3
10.07.2022 Cruz Azul – Pachuca 2 2.60 1:2
11.07.2022 KFUM Oslo – Start 2 2.50 0:1
12.07.2022 El Gaish – Pyramids X 3.10 2:2
13.07.2022 Al Masry – Pharco X 2.70 0:0
14.07.2022 Weston – FC Florida U23 1 2.40 2:1
15.07.2022 Gyeongnam – Asan 2 2.80 0:1
16.07.2022 Temperley – Deportivo Madryn X 2.70 1:1
17.07.2022 Tigre – Estudiantes L.P. 1 2.20 2:1
18.07.2022 FREE DAY / / /
19.07.2022 Garching – Dachau 2 2.70 2:3
20.07.2022 Patronato – Tigre 2 2.60 1:0
21.07.2022 Petrocub (Mda) – Laci (Alb) X 2.90 0:0
22.07.2022 CA Mitre – All Boys 1 2.50 1:0
23.07.2022 Nueva Chicago – Almirante Brown X 2.70 2:2
24.07.2022 A. Lustenau – Tirol 1 2.40 2:1
25.07.2022 Kamaz – SKA Khabarovsk 1 3.00 3:2
26.07.2022 Kuban U19 – Akhmat Grozny U19 2 2.80 2:4
27.07.2022 Carlos Stein – Sport Boys Over 3.5 2.70 3:2
28.07.2022 FREE DAY / / /
29.07.2022 Cartagena – Cucuta 2 2.60 1:2
30.07.2022 Huachipato – U. Espanola 2 2.80 2:5
31.07.2022 Juventud Unida Universitario – Sol de Mayo X 2.70 0:0

 

June – 2022
DATA MATCH TIP ODDS FT
01.06.2022 Iran U23 – Qatar U23 X 2.90 1:1
02.06.2022 Slovenia – Sweden 2 2.30 0:2
03.06.2022 IL Express – Uradd 1 2.50 2:1
04.06.2022 Chaco For Ever – Deportivo Maipu X 2.80 2:2
05.06.2022 Hoffenheim II W – 1.FC Nurnberg W 1 2.40 4:1
06.06.2022 Baerum Sportsklubb – Kjelsas 2 2.50 1:3
07.06.2022 Poland U21 – Germany U21 2 2.50 1:2
08.06.2022 Palmaflor – The Strongest 2 2.50 1:2
09.06.2022 Lara – Metropolitanos 2 2.90 1:2
10.06.2022 Vocklamarkt – Weindorf St. Anna 1 2.70 3:2
11.06.2022 Ireland – Scotland 1 2.80 3:0
12.06.2022 Giravanz Kitakyushu – Fukushima Utd X 2.90 1:1
13.06.2022 Asan – Daejeon 1 2.50 1:0
14.06.2022 Poland – Belgium 2 2.50 0:1
15.06.2022 KTP – Gnistan 4 2.60 4:0
16.06.2022 Racing Club – Velez Sarsfield 1 2.30 2:0
17.06.2022 Kiffen – Futura 2 4.50 1:2
18.06.2022 Arsenal Sarandi – Talleres Cordoba X 3.00 1:1
19.06.2022 Guarani – CSA X 2.80 0:0
20.06.2022 Atletico Atlanta – CA Mitre 2 3.50 0:1
21.06.2022 Gimnasia L.P. – Racing Club 1 3.00 3:1
22.06.2022 Israel U19 – Austria U19 1 3.50 4:2
23.06.2022 Fluminense – Cruzeiro BTTS Yes 2.30 2:1
24.06.2022 Wexford – Longford 2 2.50 2:1
25.06.2022 Ituzaingo – UAI Urquiza X 2.80 0:0
26.06.2022 CDJU Gualeguaychu – Atletico Parana 1 2.50 4:1
27.06.2022 Mohammedan – Sheikh Jamal 1 2.90 3:1
28.06.2022 Tacuary – Sol de America X 3.10 2:2
29.06.2022 Samorin (Svk) – Petrzalka (Svk) 2 2.60 1:2
30.06.2022 Lugano (Sui) – Ingolstadt (Ger) 2 2.40 0:1